Location: Beuerbach
(48.1459°N, 10.9174°E)
Time: 19:49:54
(UTC+00:00)

SL-16 R/B - Pass Details

Date: 17 August 2024
Orbit: 842 x 845 km, 71.0° (Epoch: 07 September)

Event Time Altitude Azimuth Distance (km) Brightness Sun altitude
Exits shadow 23:01:21 33° 268° (W) 1,395 3.3 -28.7°
Maximum altitude 23:03:03 41° 307° (NW) 1,215 3.2 -28.7°
Drops below altitude 10° 23:08:24 10° 17° (NNE) 2,476 5.5 -28.8°
Sets 23:11:01 0° 25° (NNE) 3,415 6.3 -28.8°
